Lid_Strength_Index
13 14 17 17 16 17 17 17 17 16 16 16 17 16 14 13 13 13 13 12 12 12 11 10 10 10 11 11 12 13 14 13 13 12 12 12 11 9 9 8 7 6 6 4
14 18 17 16 16 17 17 17 17 16 16 16 16 16 14 13 13 13 13 12 12 12 12 11 11 11 11 11 11 12 13 13 13 12 12 11 11 10 9 7 7 7 6 5
15 18 16 17 16 17 17 18 18 18 16 15 15 15 15 13 12 12 12 12 12 12 12 12 11 11 11 11 12 12 12 12 12 13 12 12 12 11 11 10 9 8 8 7
17 16 17 17 18 17 18 17 18 18 17 17 15 17 15 13 13 13 13 12 12 12 12 11 11 11 11 11 11 11 12 12 12 12 13 14 14 14 12 12 10 9 7 7
18 17 17 17 18 17 18 16 17 17 17 17 16 17 15 14 15 14 13 13 12 12 12 12 11 11 11 11 11 11 11 12 12 13 13 14 15 14 13 12 12 11 9 8
17 15 16 17 17 17 16 17 17 16 17 18 17 18 15 15 14 14 13 13 13 12 12 11 11 11 11 11 11 11 12 12 12 12 13 14 14 15 15 14 13 12 11 10
18 17 16 16 17 16 16 17 16 18 18 18 17 19 15 13 14 14 14 13 13 12 12 12 12 12 11 12 11 12 12 13 12 12 13 13 13 14 15 15 14 14 13 12
17 17 18 17 18 20 18 18 17 20 19 18 18 20 15 13 13 13 13 13 12 12 12 12 12 11 11 12 12 12 12 12 12 12 12 11 11 12 13 14 14 14 14 13
17 19 17 17 17 17 18 18 18 20 22 22 17 15 14 13 14 14 14 13 13 12 12 12 12 11 11 12 12 12 12 13 12 12 11 11 10 11 11 11 12 13 14 13
18 18 18 17 17 17 18 16 20 19 22 22 18 19 16 16 15 14 14 14 13 12 12 12 12 12 11 11 12 12 12 13 13 12 12 11 10 10 10 10 11 11 12 13
18 19 20 19 19 18 20 19 20 19 20 21 22 17 12 13 13 14 14 14 13 12 12 12 11 11 11 11 12 12 13 13 13 13 13 12 11 11 10 11 11 11 11 11
17 18 19 18 18 18 18 18 18 20 21 21 22 21 13 14 14 14 13 13 13 12 12 12 11 11 11 11 12 12 13 13 13 13 13 13 12 12 11 11 12 11 12 11
17 18 19 20 20 19 21 19 18 19 20 22 22 18 14 15 14 14 14 13 12 12 12 12 11 12 11 11 12 12 13 13 13 13 13 13 13 13 13 12 12 12 12 12
16 19 20 18 20 19 22 20 19 20 21 20 21 18 14 13 14 13 13 12 12 12 12 12 12 12 11 11 11 12 13 13 13 13 13 14 13 13 13 13 13 13 13 13
17 22 22 21 19 19 20 21 20 21 20 21 18 17 15 13 14 14 13 13 13 13 13 12 12 12 11 11 11 11 12 13 13 14 14 14 13 13 13 14 14 14 14 14
18 21 24 24 20 20 22 20 20 20 19 19 19 20 14 14 13 14 13 13 14 13 13 12 12 11 11 11 11 12 12 13 13 14 14 14 14 14 13 14 14 15 15 15
20 20 23 22 22 22 24 22 21 20 19 19 21 17 14 14 14 14 13 13 14 13 13 12 12 11 11 10 10 12 12 13 13 13 13 14 14 14 14 14 15 15 16 16
20 21 20 23 24 25 17 17 18 18 17 16 17 16 15 14 14 13 12 13 13 13 12 12 11 11 10 10 10 11 12 13 13 13 14 14 15 16 15 15 15 16 16 17
17 19 21 23 23 19 17 18 19 20 19 15 16 15 14 13 14 14 12 12 12 12 11 11 10 10 10 10 10 11 12 13 13 14 14 15 16 16 16 17 16 15 17 18
17 17 20 26 25 24 19 18 16 17 21 13 14 15 14 14 18 15 12 12 12 11 11 11 10 11 10 10 10 11 12 13 14 14 15 16 16 17 17 16 16 16 16 18
22 20 23 22 23 21 17 17 16 21 17 15 14 14 14 15 14 12 11 12 11 11 11 11 11 11 10 10 10 12 12 14 13 15 16 16 16 17 16 16 16 17 18 18
22 22 22 22 23 25 14 17 19 13 13 14 14 14 14 13 12 12 12 12 11 11 11 11 11 11 10 10 11 13 13 13 15 16 16 17 17 17 16 17 17 17 18 18
21 17 19 18 19 15 13 13 13 12 14 13 13 13 12 13 13 12 12 12 12 11 11 11 11 12 15 14 13 13 13 15 16 18 19 19 18 18 17 18 18 18 18 19
18 15 19 19 15 15 13 13 13 12 13 12 12 12 12 12 12 12 12 12 11 11 11 11 11 12 14 15 14 14 15 17 19 19 19 18 18 18 18 17 17 17 18 19
14 16 17 17 15 12 12 11 11 11 10 11 10 11 11 11 12 11 11 11 11 11 11 12 12 12 13 15 15 16 17 18 19 19 18 18 17 17 17 17 17 18 17 18
14 15 17 16 11 11 11 10 9 11 11 10 11 11 10 10 11 10 10 10 10 11 12 14 13 13 14 15 15 16 17 18 20 19 18 17 18 17 17 18 18 16 15 15